Satellite: NOAA-12 Catalog number: 21263 Epoch time: 13024.56531502 Element set: 694 Inclination: 098.7117 deg RA of node: 050.9970 deg Eccentricity: 0.0012908 Arg of perigee: 279.0529 deg Mean anomaly: 080.9182 deg Mean motion: 14.25543864 rev/day Decay rate: 4.0e-07 rev/day^2 Epoch rev: 12809 Checksum: 295
Satellite: MET-3/5 Catalog number: 21655 Epoch time: 13024.21541301 Element set: 603 Inclination: 082.5586 deg RA of node: 356.0145 deg Eccentricity: 0.0014471 Arg of perigee: 127.8404 deg Mean anomaly: 232.4030 deg Mean motion: 13.17043737 rev/day Decay rate: 7.0e-08 rev/day^2 Epoch rev: 3098 Checksum: 253
Satellite: MET-2/21 Catalog number: 22782 Epoch time: 13024.09692181 Element set: 645 Inclination: 082.5467 deg RA of node: 217.2295 deg Eccentricity: 0.0021452 Arg of perigee: 251.6936 deg Mean anomaly: 257.1629 deg Mean motion: 13.83697736 rev/day Decay rate: 1.3e-07 rev/day^2 Epoch rev: 97971 Checksum: 326
Satellite: OKEAN-4 Catalog number: 23317 Epoch time: 13024.86618873 Element set: 120 Inclination: 082.5391 deg RA of node: 183.8891 deg Eccentricity: 0.0020995 Arg of perigee: 344.5030 deg Mean anomaly: 015.5541 deg Mean motion: 14.84219684 rev/day Decay rate: 9.14e-06 rev/day^2 Epoch rev: 98768 Checksum: 320
Satellite: NOAA-14 Catalog number: 23455 Epoch time: 13024.47621675 Element set: 175 Inclination: 098.8129 deg RA of node: 111.0478 deg Eccentricity: 0.0010288 Arg of perigee: 048.9738 deg Mean anomaly: 311.2323 deg Mean motion: 14.13891071 rev/day Decay rate: 3.3e-07 rev/day^2 Epoch rev: 93206 Checksum: 289
Satellite: NOAA-15 Catalog number: 25338 Epoch time: 13024.49564663 Element set: 587 Inclination: 098.7111 deg RA of node: 015.5710 deg Eccentricity: 0.0010361 Arg of perigee: 181.3509 deg Mean anomaly: 178.7651 deg Mean motion: 14.25172278 rev/day Decay rate: 1.49e-06 rev/day^2 Epoch rev: 76437 Checksum: 309
Satellite: RESURS Catalog number: 25394 Epoch time: 13023.52376810 Element set: 289 Inclination: 098.3456 deg RA of node: 006.4278 deg Eccentricity: 0.0000807 Arg of perigee: 018.1094 deg Mean anomaly: 129.3818 deg Mean motion: 14.24318446 rev/day Decay rate: -6.0e-08 rev/day^2 Epoch rev: 75576 Checksum: 300
Satellite: FENGYUN1 Catalog number: 25730 Epoch time: 13024.46225639 Element set: 792 Inclination: 098.8669 deg RA of node: 345.8760 deg Eccentricity: 0.0023814 Arg of perigee: 087.0359 deg Mean anomaly: 061.1761 deg Mean motion: 14.10091349 rev/day Decay rate: 1.725e-05 rev/day^2 Epoch rev: 70578 Checksum: 316
Satellite: OKEAN-0 Catalog number: 25860 Epoch time: 13024.53366448 Element set: 850 Inclination: 097.9720 deg RA of node: 349.0860 deg Eccentricity: 0.0000935 Arg of perigee: 128.4672 deg Mean anomaly: 349.9521 deg Mean motion: 14.74462061 rev/day Decay rate: 2.63e-06 rev/day^2 Epoch rev: 72718 Checksum: 308
Satellite: NOAA-16 Catalog number: 26536 Epoch time: 13024.49498037 Element set: 65 Inclination: 099.0649 deg RA of node: 075.6989 deg Eccentricity: 0.0010561 Arg of perigee: 176.7358 deg Mean anomaly: 183.3890 deg Mean motion: 14.12830703 rev/day Decay rate: -8.4e-07 rev/day^2 Epoch rev: 63628 Checksum: 335
Satellite: NOAA-17 Catalog number: 27453 Epoch time: 13024.49151051 Element set: 998 Inclination: 098.3203 deg RA of node: 046.1457 deg Eccentricity: 0.0010994 Arg of perigee: 223.7886 deg Mean anomaly: 136.2423 deg Mean motion: 14.24534655 rev/day Decay rate: 1.57e-06 rev/day^2 Epoch rev: 55026 Checksum: 303
Satellite: NOAA-18 Catalog number: 28654 Epoch time: 13024.33815407 Element set: 479 Inclination: 099.0776 deg RA of node: 350.6334 deg Eccentricity: 0.0013540 Arg of perigee: 252.5838 deg Mean anomaly: 107.3858 deg Mean motion: 14.11762145 rev/day Decay rate: -4.5e-07 rev/day^2 Epoch rev: 39576 Checksum: 318
Satellite: NOAA-19 Catalog number: 33591 Epoch time: 13024.25406639 Element set: 664 Inclination: 098.8869 deg RA of node: 327.5601 deg Eccentricity: 0.0014711 Arg of perigee: 115.0871 deg Mean anomaly: 245.1850 deg Mean motion: 14.11450454 rev/day Decay rate: 3.47e-06 rev/day^2 Epoch rev: 20419 Checksum: 295
/EX SB KEPS @ AMSAT $ORB13024.M Orbital Elements 13024.MISC
HR AMSAT ORBITAL ELEMENTS FOR MANNED AND MISCELLANEOUS SATELLITES FROM WA5QGD FORT WORTH,TX January 24, 2013 BID: ORB13024.M TO ALL RADIO AMATEURS BT
Satellite: HUBBLE Catalog number: 20580 Epoch time: 13023.73208723 Element set: 160 Inclination: 028.4691 deg RA of node: 139.5192 deg Eccentricity: 0.0003334 Arg of perigee: 243.1603 deg Mean anomaly: 116.8646 deg Mean motion: 15.03235172 rev/day Decay rate: 1.318e-05 rev/day^2 Epoch rev: 4793 Checksum: 260
Satellite: ISS Catalog number: 25544 Epoch time: 13024.95775463 Element set: 84 Inclination: 051.6490 deg RA of node: 099.8386 deg Eccentricity: 0.0013499 Arg of perigee: 195.1469 deg Mean anomaly: 161.1642 deg Mean motion: 15.52082802 rev/day Decay rate: 1.0657e-04 rev/day^2 Epoch rev: 81245 Checksum: 317
Satellite: CO-58 Catalog number: 28895 Epoch time: 13024.05565907 Element set: 387 Inclination: 097.8865 deg RA of node: 246.2719 deg Eccentricity: 0.0017792 Arg of perigee: 172.5665 deg Mean anomaly: 187.5832 deg Mean motion: 14.60944253 rev/day Decay rate: 5.70e-06 rev/day^2 Epoch rev: 38590 Checksum: 361
Satellite: FALCON Catalog number: 30776 Epoch time: 13024.41302957 Element set: 535 Inclination: 035.4325 deg RA of node: 003.7459 deg Eccentricity: 0.0002003 Arg of perigee: 185.9341 deg Mean anomaly: 309.9610 deg Mean motion: 15.09436693 rev/day Decay rate: 2.858e-05 rev/day^2 Epoch rev: 32367 Checksum: 289
Satellite: MAST Catalog number: 31126 Epoch time: 13024.01222895 Element set: 665 Inclination: 097.8753 deg RA of node: 028.2234 deg Eccentricity: 0.0093988 Arg of perigee: 141.7351 deg Mean anomaly: 219.0564 deg Mean motion: 14.54416452 rev/day Decay rate: 3.09e-06 rev/day^2 Epoch rev: 30636 Checksum: 290
Satellite: CAPE1 Catalog number: 31130 Epoch time: 13023.95175155 Element set: 677 Inclination: 097.8878 deg RA of node: 024.4845 deg Eccentricity: 0.0101314 Arg of perigee: 156.6577 deg Mean anomaly: 203.9271 deg Mean motion: 14.53279453 rev/day Decay rate: 2.53e-06 rev/day^2 Epoch rev: 30583 Checksum: 302
Satellite: COMPASS Catalog number: 32787 Epoch time: 13023.84602817 Element set: 525 Inclination: 097.7719 deg RA of node: 086.0757 deg Eccentricity: 0.0015921 Arg of perigee: 062.4114 deg Mean anomaly: 050.0011 deg Mean motion: 14.84927557 rev/day Decay rate: 1.205e-05 rev/day^2 Epoch rev: 25654 Checksum: 290
Satellite: AAUSAT2 Catalog number: 32788 Epoch time: 13024.15506792 Element set: 516 Inclination: 097.7730 deg RA of node: 086.8975 deg Eccentricity: 0.0015346 Arg of perigee: 061.0730 deg Mean anomaly: 351.6965 deg Mean motion: 14.85335459 rev/day Decay rate: 1.340e-05 rev/day^2 Epoch rev: 25662 Checksum: 318
Satellite: DO-64 Catalog number: 32789 Epoch time: 13024.75909772 Element set: 539 Inclination: 097.7872 deg RA of node: 090.4807 deg Eccentricity: 0.0014862 Arg of perigee: 054.1116 deg Mean anomaly: 093.6470 deg Mean motion: 14.87498802 rev/day Decay rate: 1.659e-05 rev/day^2 Epoch rev: 25679 Checksum: 358
Satellite: CO-66 Catalog number: 32791 Epoch time: 13024.18925590 Element set: 513 Inclination: 097.7726 deg RA of node: 085.9450 deg Eccentricity: 0.0016321 Arg of perigee: 061.5627 deg Mean anomaly: 332.0162 deg Mean motion: 14.84175632 rev/day Decay rate: 9.35e-06 rev/day^2 Epoch rev: 25651 Checksum: 305
Satellite: RS-30 Catalog number: 32953 Epoch time: 13024.79264925 Element set: 532 Inclination: 082.5024 deg RA of node: 157.3487 deg Eccentricity: 0.0018979 Arg of perigee: 182.5711 deg Mean anomaly: 177.5276 deg Mean motion: 12.43031002 rev/day Decay rate: 1.0e-07 rev/day^2 Epoch rev: 21209 Checksum: 281
Satellite: METEOR-M Catalog number: 35865 Epoch time: 13024.67289724 Element set: 163 Inclination: 098.6243 deg RA of node: 080.4830 deg Eccentricity: 0.0002966 Arg of perigee: 116.2422 deg Mean anomaly: 243.9057 deg Mean motion: 14.21878952 rev/day Decay rate: -2.5e-07 rev/day^2 Epoch rev: 17407 Checksum: 303
Satellite: RS-38 Catalog number: 35869 Epoch time: 13024.65977474 Element set: 127 Inclination: 098.6192 deg RA of node: 080.4226 deg Eccentricity: 0.0005055 Arg of perigee: 122.3381 deg Mean anomaly: 237.8280 deg Mean motion: 14.22110401 rev/day Decay rate: 2.5e-07 rev/day^2 Epoch rev: 17409 Checksum: 288
Satellite: JUGNU Catalog number: 37839 Epoch time: 13024.49072234 Element set: 319 Inclination: 019.9599 deg RA of node: 097.4791 deg Eccentricity: 0.0019354 Arg of perigee: 138.6367 deg Mean anomaly: 221.5465 deg Mean motion: 14.12122672 rev/day Decay rate: 6.20e-06 rev/day^2 Epoch rev: 6656 Checksum: 312
Satellite: SRMSAT Catalog number: 37841 Epoch time: 13024.56406746 Element set: 318 Inclination: 019.9703 deg RA of node: 106.2594 deg Eccentricity: 0.0012093 Arg of perigee: 099.6759 deg Mean anomaly: 260.5086 deg Mean motion: 14.10196386 rev/day Decay rate: 2.64e-06 rev/day^2 Epoch rev: 6647 Checksum: 309
Satellite: RAX-2 Catalog number: 37853 Epoch time: 13024.84429851 Element set: 407 Inclination: 101.7117 deg RA of node: 172.2666 deg Eccentricity: 0.0239117 Arg of perigee: 077.9371 deg Mean anomaly: 284.8486 deg Mean motion: 14.82255592 rev/day Decay rate: 2.802e-05 rev/day^2 Epoch rev: 6720 Checksum: 314
Satellite: AUBIESAT Catalog number: 37854 Epoch time: 13023.98645033 Element set: 405 Inclination: 101.7143 deg RA of node: 171.5988 deg Eccentricity: 0.0239302 Arg of perigee: 079.3315 deg Mean anomaly: 283.4716 deg Mean motion: 14.82844225 rev/day Decay rate: 3.447e-05 rev/day^2 Epoch rev: 6708 Checksum: 304
